Time,TemperatureF,DewpointF,PressureIn,WindDirection,WindDirectionDegrees,WindSpeedMPH,WindSpeedGustMPH,Humidity,HourlyPrecipIn,Conditions,Clouds,dailyrainin,SoftwareType,DateUTC
2013-03-19 00:02:00,21.0,11.0,-100.00,North,-999,-999.0,-999.0,65,-99.99,,,-99.99,,2013-03-19 06:02:00,
2013-03-19 00:12:00,21.0,11.0,-100.00,North,-999,-999.0,-999.0,65,-99.99,,,-99.99,,2013-03-19 06:12:00,
2013-03-19 00:22:00,21.0,11.0,-100.00,North,-999,-999.0,-999.0,65,-99.99,,,-99.99,,2013-03-19 06:22:00,
2013-03-19 00:32:00,21.0,11.0,-100.00,North,-999,-999.0,-999.0,65,-99.99,,,-99.99,,2013-03-19 06:32:00,
2013-03-19 00:42:00,21.0,11.0,-100.00,North,-999,-999.0,-999.0,65,-99.99,,,-99.99,,2013-03-19 06:42:00,
2013-03-19 00:52:00,21.0,11.0,-100.00,North,-999,-999.0,-999.0,65,-99.99,,,-99.99,,2013-03-19 06:52:00,
2013-03-19 01:02:00,21.0,11.0,-100.00,North,-999,-999.0,-999.0,64,-99.99,,,-99.99,,2013-03-19 07:02:00,
2013-03-19 01:12:00,21.0,10.0,-100.00,North,-999,-999.0,-999.0,63,-99.99,,,-99.99,,2013-03-19 07:12:00,
2013-03-19 01:21:00,21.0,10.0,-100.00,North,-999,-999.0,-999.0,63,-99.99,,,-99.99,,2013-03-19 07:21:00,
2013-03-19 01:32:00,21.0,10.0,-100.00,North,-999,-999.0,-999.0,63,-99.99,,,-99.99,,2013-03-19 07:32:00,
2013-03-19 01:42:00,20.0,8.0,-100.00,North,-999,-999.0,-999.0,57,-99.99,,,-99.99,,2013-03-19 07:42:00,
2013-03-19 01:52:00,20.0,8.0,-100.00,North,-999,-999.0,-999.0,57,-99.99,,,-99.99,,2013-03-19 07:52:00,
2013-03-19 02:02:00,21.0,7.0,-100.00,North,-999,-999.0,-999.0,55,-99.99,,,-99.99,,2013-03-19 08:02:00,
2013-03-19 02:12:00,21.0,6.0,-100.00,North,-999,-999.0,-999.0,52,-99.99,,,-99.99,,2013-03-19 08:12:00,
2013-03-19 02:22:00,21.0,6.0,-100.00,North,-999,-999.0,-999.0,52,-99.99,,,-99.99,,2013-03-19 08:22:00,
2013-03-19 02:32:00,21.0,6.0,-100.00,North,-999,-999.0,-999.0,52,-99.99,,,-99.99,,2013-03-19 08:32:00,
2013-03-19 02:42:00,21.0,-2.0,-100.00,North,-999,-999.0,-999.0,36,-99.99,,,-99.99,,2013-03-19 08:42:00,
2013-03-19 02:52:00,21.0,-2.0,-100.00,North,-999,-999.0,-999.0,36,-99.99,,,-99.99,,2013-03-19 08:52:00,
2013-03-19 03:02:00,21.0,-3.0,-100.00,North,-999,-999.0,-999.0,33,-99.99,,,-99.99,,2013-03-19 09:02:00,
2013-03-19 03:12:00,21.0,-6.0,-100.00,North,-999,-999.0,-999.0,29,-99.99,,,-99.99,,2013-03-19 09:12:00,
2013-03-19 03:22:00,21.0,-6.0,-100.00,North,-999,-999.0,-999.0,29,-99.99,,,-99.99,,2013-03-19 09:22:00,
2013-03-19 03:32:00,21.0,-6.0,-100.00,North,-999,-999.0,-999.0,29,-99.99,,,-99.99,,2013-03-19 09:32:00,
2013-03-19 03:42:00,21.0,-13.0,-100.00,North,-999,-999.0,-999.0,21,-99.99,,,-99.99,,2013-03-19 09:42:00,
2013-03-19 03:53:00,21.0,-13.0,-100.00,North,-999,-999.0,-999.0,21,-99.99,,,-99.99,,2013-03-19 09:53:00,
2013-03-19 04:03:00,20.0,-11.0,-100.00,North,-999,-999.0,-999.0,23,-99.99,,,-99.99,,2013-03-19 10:03:00,
2013-03-19 04:12:00,19.0,-9.0,-100.00,North,-999,-999.0,-999.0,26,-99.99,,,-99.99,,2013-03-19 10:12:00,
2013-03-19 04:22:00,19.0,-9.0,-100.00,North,-999,-999.0,-999.0,26,-99.99,,,-99.99,,2013-03-19 10:22:00,
2013-03-19 04:32:00,19.0,-9.0,-100.00,North,-999,-999.0,-999.0,26,-99.99,,,-99.99,,2013-03-19 10:32:00,
2013-03-19 04:42:00,18.0,-9.0,-100.00,North,-999,-999.0,-999.0,28,-99.99,,,-99.99,,2013-03-19 10:42:00,
2013-03-19 04:53:00,18.0,-9.0,-100.00,North,-999,-999.0,-999.0,28,-99.99,,,-99.99,,2013-03-19 10:53:00,
2013-03-19 05:02:00,18.0,-9.0,-100.00,North,-999,-999.0,-999.0,28,-99.99,,,-99.99,,2013-03-19 11:02:00,
2013-03-19 05:12:00,19.0,-13.0,-100.00,North,-999,-999.0,-999.0,23,-99.99,,,-99.99,,2013-03-19 11:12:00,
2013-03-19 05:22:00,19.0,-13.0,-100.00,North,-999,-999.0,-999.0,23,-99.99,,,-99.99,,2013-03-19 11:22:00,
2013-03-19 05:32:00,19.0,-13.0,-100.00,North,-999,-999.0,-999.0,23,-99.99,,,-99.99,,2013-03-19 11:32:00,
2013-03-19 05:42:00,19.0,-12.0,-100.00,North,-999,-999.0,-999.0,24,-99.99,,,-99.99,,2013-03-19 11:42:00,
2013-03-19 05:52:00,19.0,-12.0,-100.00,North,-999,-999.0,-999.0,24,-99.99,,,-99.99,,2013-03-19 11:52:00,
2013-03-19 06:02:00,18.0,-10.0,-100.00,North,-999,-999.0,-999.0,26,-99.99,,,-99.99,,2013-03-19 12:02:00,
2013-03-19 06:12:00,18.0,-9.0,-100.00,North,-999,-999.0,-999.0,28,-99.99,,,-99.99,,2013-03-19 12:12:00,
2013-03-19 06:22:00,18.0,-9.0,-100.00,North,-999,-999.0,-999.0,28,-99.99,,,-99.99,,2013-03-19 12:22:00,
2013-03-19 06:32:00,18.0,-9.0,-100.00,North,-999,-999.0,-999.0,28,-99.99,,,-99.99,,2013-03-19 12:32:00,
2013-03-19 06:42:00,16.0,-7.0,-100.00,North,-999,-999.0,-999.0,35,-99.99,,,-99.99,,2013-03-19 12:42:00,
2013-03-19 06:52:00,16.0,-7.0,-100.00,North,-999,-999.0,-999.0,35,-99.99,,,-99.99,,2013-03-19 12:52:00,
2013-03-19 07:02:00,16.0,-11.0,-100.00,North,-999,-999.0,-999.0,28,-99.99,,,-99.99,,2013-03-19 13:02:00,
2013-03-19 07:12:00,16.0,-11.0,-100.00,North,-999,-999.0,-999.0,28,-99.99,,,-99.99,,2013-03-19 13:12:00,
2013-03-19 07:22:00,16.0,-11.0,-100.00,North,-999,-999.0,-999.0,28,-99.99,,,-99.99,,2013-03-19 13:22:00,
2013-03-19 07:32:00,16.0,-11.0,-100.00,North,-999,-999.0,-999.0,28,-99.99,,,-99.99,,2013-03-19 13:32:00,
2013-03-19 07:42:00,15.0,-12.0,-100.00,North,-999,-999.0,-999.0,27,-99.99,,,-99.99,,2013-03-19 13:42:00,
2013-03-19 07:52:00,15.0,-12.0,-100.00,North,-999,-999.0,-999.0,27,-99.99,,,-99.99,,2013-03-19 13:52:00,
2013-03-19 08:02:00,15.0,-12.0,-100.00,North,-999,-999.0,-999.0,27,-99.99,,,-99.99,,2013-03-19 14:02:00,
2013-03-19 08:12:00,16.0,-15.0,-100.00,North,-999,-999.0,-999.0,22,-99.99,,,-99.99,,2013-03-19 14:12:00,
2013-03-19 08:22:00,16.0,-15.0,-100.00,North,-999,-999.0,-999.0,22,-99.99,,,-99.99,,2013-03-19 14:22:00,
2013-03-19 08:32:00,16.0,-15.0,-100.00,North,-999,-999.0,-999.0,22,-99.99,,,-99.99,,2013-03-19 14:32:00,
2013-03-19 08:42:00,16.0,-19.0,-100.00,North,-999,-999.0,-999.0,18,-99.99,,,-99.99,,2013-03-19 14:42:00,
2013-03-19 08:52:00,16.0,-19.0,-100.00,North,-999,-999.0,-999.0,18,-99.99,,,-99.99,,2013-03-19 14:52:00,
2013-03-19 09:02:00,17.0,-19.0,-100.00,North,-999,-999.0,-999.0,17,-99.99,,,-99.99,,2013-03-19 15:02:00,
2013-03-19 09:12:00,18.0,-20.0,-100.00,North,-999,-999.0,-999.0,16,-99.99,,,-99.99,,2013-03-19 15:12:00,
2013-03-19 09:22:00,18.0,-20.0,-100.00,North,-999,-999.0,-999.0,16,-99.99,,,-99.99,,2013-03-19 15:22:00,
2013-03-19 09:33:00,18.0,-20.0,-100.00,North,-999,-999.0,-999.0,16,-99.99,,,-99.99,,2013-03-19 15:33:00,
2013-03-19 09:43:00,19.0,-19.0,-100.00,North,-999,-999.0,-999.0,16,-99.99,,,-99.99,,2013-03-19 15:43:00,
2013-03-19 09:53:00,19.0,-19.0,-100.00,North,-999,-999.0,-999.0,16,-99.99,,,-99.99,,2013-03-19 15:53:00,
2013-03-19 10:03:00,20.0,-17.0,-100.00,North,-999,-999.0,-999.0,17,-99.99,,,-99.99,,2013-03-19 16:03:00,
2013-03-19 10:12:00,20.0,-18.0,-100.00,North,-999,-999.0,-999.0,16,-99.99,,,-99.99,,2013-03-19 16:12:00,
2013-03-19 10:23:00,20.0,-18.0,-100.00,North,-999,-999.0,-999.0,16,-99.99,,,-99.99,,2013-03-19 16:23:00,
2013-03-19 10:33:00,20.0,-18.0,-100.00,North,-999,-999.0,-999.0,16,-99.99,,,-99.99,,2013-03-19 16:33:00,
2013-03-19 10:43:00,23.0,-15.0,-100.00,North,-999,-999.0,-999.0,17,-99.99,,,-99.99,,2013-03-19 16:43:00,
2013-03-19 11:02:00,24.0,-15.0,-100.00,North,-999,-999.0,-999.0,16,-99.99,,,-99.99,,2013-03-19 17:02:00,
2013-03-19 11:13:00,25.0,-15.0,-100.00,North,-999,-999.0,-999.0,16,-99.99,,,-99.99,,2013-03-19 17:13:00,
2013-03-19 11:23:00,25.0,-15.0,-100.00,North,-999,-999.0,-999.0,16,-99.99,,,-99.99,,2013-03-19 17:23:00,
2013-03-19 11:34:00,25.0,-15.0,-100.00,North,-999,-999.0,-999.0,16,-99.99,,,-99.99,,2013-03-19 17:34:00,
2013-03-19 11:43:00,27.0,-11.0,-100.00,North,-999,-999.0,-999.0,17,-99.99,,,-99.99,,2013-03-19 17:43:00,
2013-03-19 11:53:00,27.0,-11.0,-100.00,North,-999,-999.0,-999.0,17,-99.99,,,-99.99,,2013-03-19 17:53:00,
2013-03-19 12:02:00,27.0,-18.0,-100.00,North,-999,-999.0,-999.0,12,-99.99,,,-99.99,,2013-03-19 18:02:00,
2013-03-19 12:13:00,27.0,-18.0,-100.00,North,-999,-999.0,-999.0,12,-99.99,,,-99.99,,2013-03-19 18:13:00,
2013-03-19 12:23:00,27.0,-18.0,-100.00,North,-999,-999.0,-999.0,12,-99.99,,,-99.99,,2013-03-19 18:23:00,
2013-03-19 12:33:00,27.0,-18.0,-100.00,North,-999,-999.0,-999.0,12,-99.99,,,-99.99,,2013-03-19 18:33:00,
2013-03-19 12:42:00,28.0,-13.0,-100.00,North,-999,-999.0,-999.0,15,-99.99,,,-99.99,,2013-03-19 18:42:00,
2013-03-19 12:53:00,28.0,-13.0,-100.00,North,-999,-999.0,-999.0,15,-99.99,,,-99.99,,2013-03-19 18:53:00,
2013-03-19 13:02:00,29.0,-13.0,-100.00,North,-999,-999.0,-999.0,14,-99.99,,,-99.99,,2013-03-19 19:02:00,
2013-03-19 13:12:00,30.0,-10.0,-100.00,North,-999,-999.0,-999.0,16,-99.99,,,-99.99,,2013-03-19 19:12:00,
2013-03-19 13:22:00,30.0,-10.0,-100.00,North,-999,-999.0,-999.0,16,-99.99,,,-99.99,,2013-03-19 19:22:00,
2013-03-19 13:32:00,30.0,-10.0,-100.00,North,-999,-999.0,-999.0,16,-99.99,,,-99.99,,2013-03-19 19:32:00,
2013-03-19 13:42:00,30.0,-12.0,-100.00,North,-999,-999.0,-999.0,14,-99.99,,,-99.99,,2013-03-19 19:42:00,
2013-03-19 13:53:00,30.0,-12.0,-100.00,North,-999,-999.0,-999.0,14,-99.99,,,-99.99,,2013-03-19 19:53:00,
2013-03-19 14:02:00,30.0,-12.0,-100.00,North,-999,-999.0,-999.0,14,-99.99,,,-99.99,,2013-03-19 20:02:00,
2013-03-19 14:11:00,30.0,-9.0,-100.00,North,-999,-999.0,-999.0,17,-99.99,,,-99.99,,2013-03-19 20:11:00,
2013-03-19 14:22:00,30.0,-9.0,-100.00,North,-999,-999.0,-999.0,17,-99.99,,,-99.99,,2013-03-19 20:22:00,
2013-03-19 14:32:00,30.0,-9.0,-100.00,North,-999,-999.0,-999.0,17,-99.99,,,-99.99,,2013-03-19 20:32:00,
2013-03-19 14:42:00,29.0,-13.0,-100.00,North,-999,-999.0,-999.0,14,-99.99,,,-99.99,,2013-03-19 20:42:00,
2013-03-19 14:53:00,29.0,-13.0,-100.00,North,-999,-999.0,-999.0,14,-99.99,,,-99.99,,2013-03-19 20:53:00,
2013-03-19 15:02:00,31.0,-11.0,-100.00,North,-999,-999.0,-999.0,14,-99.99,,,-99.99,,2013-03-19 21:02:00,
2013-03-19 15:11:00,32.0,-9.0,-100.00,North,-999,-999.0,-999.0,16,-99.99,,,-99.99,,2013-03-19 21:11:00,
2013-03-19 15:22:00,32.0,-9.0,-100.00,North,-999,-999.0,-999.0,16,-99.99,,,-99.99,,2013-03-19 21:22:00,
2013-03-19 15:33:00,32.0,-9.0,-100.00,North,-999,-999.0,-999.0,16,-99.99,,,-99.99,,2013-03-19 21:33:00,
2013-03-19 15:42:00,32.0,-9.0,-100.00,North,-999,-999.0,-999.0,16,-99.99,,,-99.99,,2013-03-19 21:42:00,
2013-03-19 15:53:00,32.0,-9.0,-100.00,North,-999,-999.0,-999.0,16,-99.99,,,-99.99,,2013-03-19 21:53:00,
2013-03-19 16:03:00,33.0,-8.0,-100.00,North,-999,-999.0,-999.0,16,-99.99,,,-99.99,,2013-03-19 22:03:00,
2013-03-19 16:12:00,34.0,-8.0,-100.00,North,-999,-999.0,-999.0,15,-99.99,,,-99.99,,2013-03-19 22:12:00,
2013-03-19 16:23:00,34.0,-8.0,-100.00,North,-999,-999.0,-999.0,15,-99.99,,,-99.99,,2013-03-19 22:23:00,
2013-03-19 16:32:00,34.0,-8.0,-100.00,North,-999,-999.0,-999.0,15,-99.99,,,-99.99,,2013-03-19 22:32:00,
2013-03-19 16:43:00,33.0,-7.0,-100.00,North,-999,-999.0,-999.0,17,-99.99,,,-99.99,,2013-03-19 22:43:00,
2013-03-19 16:53:00,33.0,-7.0,-100.00,North,-999,-999.0,-999.0,17,-99.99,,,-99.99,,2013-03-19 22:53:00,
2013-03-19 17:02:00,35.0,-6.0,-100.00,North,-999,-999.0,-999.0,16,-99.99,,,-99.99,,2013-03-19 23:02:00,
2013-03-19 17:12:00,34.0,-7.0,-100.00,North,-999,-999.0,-999.0,16,-99.99,,,-99.99,,2013-03-19 23:12:00,
2013-03-19 17:22:00,34.0,-7.0,-100.00,North,-999,-999.0,-999.0,16,-99.99,,,-99.99,,2013-03-19 23:22:00,
2013-03-19 17:32:00,34.0,-7.0,-100.00,North,-999,-999.0,-999.0,16,-99.99,,,-99.99,,2013-03-19 23:32:00,
2013-03-19 17:42:00,40.0,-1.0,-100.00,North,-999,-999.0,-999.0,17,-99.99,,,-99.99,,2013-03-19 23:42:00,
2013-03-19 17:52:00,40.0,-1.0,-100.00,North,-999,-999.0,-999.0,17,-99.99,,,-99.99,,2013-03-19 23:52:00,
2013-03-19 18:02:00,40.0,0.0,-100.00,North,-999,-999.0,-999.0,17,-99.99,,,-99.99,,2013-03-20 00:02:00,
2013-03-19 18:12:00,40.0,0.0,-100.00,North,-999,-999.0,-999.0,18,-99.99,,,-99.99,,2013-03-20 00:12:00,
2013-03-19 18:22:00,40.0,0.0,-100.00,North,-999,-999.0,-999.0,18,-99.99,,,-99.99,,2013-03-20 00:22:00,
2013-03-19 18:32:00,40.0,0.0,-100.00,North,-999,-999.0,-999.0,18,-99.99,,,-99.99,,2013-03-20 00:32:00,
2013-03-19 18:42:00,38.0,1.0,-100.00,North,-999,-999.0,-999.0,20,-99.99,,,-99.99,,2013-03-20 00:42:00,
2013-03-19 18:52:00,38.0,1.0,-100.00,North,-999,-999.0,-999.0,20,-99.99,,,-99.99,,2013-03-20 00:52:00,
2013-03-19 19:02:00,35.0,2.0,-100.00,North,-999,-999.0,-999.0,24,-99.99,,,-99.99,,2013-03-20 01:02:00,
2013-03-19 19:12:00,32.0,4.0,-100.00,North,-999,-999.0,-999.0,29,-99.99,,,-99.99,,2013-03-20 01:12:00,
2013-03-19 19:22:00,32.0,4.0,-100.00,North,-999,-999.0,-999.0,29,-99.99,,,-99.99,,2013-03-20 01:22:00,
2013-03-19 19:32:00,32.0,4.0,-100.00,North,-999,-999.0,-999.0,29,-99.99,,,-99.99,,2013-03-20 01:32:00,
2013-03-19 19:42:00,29.0,4.0,-100.00,North,-999,-999.0,-999.0,33,-99.99,,,-99.99,,2013-03-20 01:42:00,
2013-03-19 19:52:00,29.0,4.0,-100.00,North,-999,-999.0,-999.0,33,-99.99,,,-99.99,,2013-03-20 01:52:00,
2013-03-19 20:02:00,28.0,2.0,-100.00,North,-999,-999.0,-999.0,32,-99.99,,,-99.99,,2013-03-20 02:02:00,
2013-03-19 20:11:00,27.0,1.0,-100.00,North,-999,-999.0,-999.0,32,-99.99,,,-99.99,,2013-03-20 02:11:00,
2013-03-19 20:22:00,27.0,1.0,-100.00,North,-999,-999.0,-999.0,32,-99.99,,,-99.99,,2013-03-20 02:22:00,
2013-03-19 20:32:00,27.0,1.0,-100.00,North,-999,-999.0,-999.0,32,-99.99,,,-99.99,,2013-03-20 02:32:00,
2013-03-19 20:42:00,27.0,-1.0,-100.00,North,-999,-999.0,-999.0,29,-99.99,,,-99.99,,2013-03-20 02:42:00,
2013-03-19 20:53:00,27.0,-1.0,-100.00,North,-999,-999.0,-999.0,29,-99.99,,,-99.99,,2013-03-20 02:53:00,
2013-03-19 21:02:00,27.0,0.0,-100.00,North,-999,-999.0,-999.0,30,-99.99,,,-99.99,,2013-03-20 03:02:00,
2013-03-19 21:12:00,27.0,-1.0,-100.00,North,-999,-999.0,-999.0,28,-99.99,,,-99.99,,2013-03-20 03:12:00,
2013-03-19 21:22:00,27.0,-1.0,-100.00,North,-999,-999.0,-999.0,28,-99.99,,,-99.99,,2013-03-20 03:22:00,
2013-03-19 21:33:00,27.0,-1.0,-100.00,North,-999,-999.0,-999.0,28,-99.99,,,-99.99,,2013-03-20 03:33:00,
2013-03-19 21:42:00,27.0,-3.0,-100.00,North,-999,-999.0,-999.0,26,-99.99,,,-99.99,,2013-03-20 03:42:00,
2013-03-19 21:53:00,27.0,-3.0,-100.00,North,-999,-999.0,-999.0,26,-99.99,,,-99.99,,2013-03-20 03:53:00,
2013-03-19 22:02:00,27.0,-4.0,-100.00,North,-999,-999.0,-999.0,25,-99.99,,,-99.99,,2013-03-20 04:02:00,
2013-03-19 22:12:00,27.0,-6.0,-100.00,North,-999,-999.0,-999.0,22,-99.99,,,-99.99,,2013-03-20 04:12:00,
2013-03-19 22:22:00,27.0,-6.0,-100.00,North,-999,-999.0,-999.0,22,-99.99,,,-99.99,,2013-03-20 04:22:00,
2013-03-19 22:32:00,27.0,-6.0,-100.00,North,-999,-999.0,-999.0,22,-99.99,,,-99.99,,2013-03-20 04:32:00,
2013-03-19 22:43:00,27.0,-6.0,-100.00,North,-999,-999.0,-999.0,22,-99.99,,,-99.99,,2013-03-20 04:43:00,
2013-03-19 23:02:00,28.0,5.0,-100.00,North,-999,-999.0,-999.0,36,-99.99,,,-99.99,,2013-03-20 05:02:00,
2013-03-19 23:12:00,28.0,5.0,-100.00,North,-999,-999.0,-999.0,36,-99.99,,,-99.99,,2013-03-20 05:12:00,
2013-03-19 23:22:00,28.0,5.0,-100.00,North,-999,-999.0,-999.0,36,-99.99,,,-99.99,,2013-03-20 05:22:00,
2013-03-19 23:32:00,28.0,5.0,-100.00,North,-999,-999.0,-999.0,36,-99.99,,,-99.99,,2013-03-20 05:32:00,
2013-03-19 23:42:00,28.0,5.0,-100.00,North,-999,-999.0,-999.0,35,-99.99,,,-99.99,,2013-03-20 05:42:00,
2013-03-19 23:53:00,28.0,5.0,-100.00,North,-999,-999.0,-999.0,35,-99.99,,,-99.99,,2013-03-20 05:53:00,